[[{"header":{"parameterUnit":"m.s-1","parameterCategory":1,"la1":30.2992,"la2":30.254,"lo1":-89.0895,"lo2":-89.0443,"dy":0.0025,"dx":0.0025,"nx":19,"ny":19,"refTime":"2026-04-10T09:00:00:Z","depth":0,"parameterNumber":2,"parameterNumberName":"U-component_of_WINDS"},"data":[0,0,0,-4.9394,-4.9396,-4.9451,-4.9451,-4.9546,-4.9547,0,0,0,0,0,0,0,0,0,0,0,-4.9391,-4.9392,-4.9394,-4.9396,-4.9451,-4.9451,-4.9546,-4.9547,0,0,0,0,0,0,0,0,0,0,0,-4.939,-4.9392,-4.9393,-4.9396,-4.9451,-4.9451,-4.9545,-4.9495,0,0,0,0,0,0,0,0,0,0,-4.9438,-4.9447,-4.9391,-4.9393,-4.9397,-4.9451,-4.9451,-4.9493,-4.9499,-4.9531,0,-4.9561,0,-4.9556,-4.9555,-4.9555,0,0,0,-4.9386,-4.9442,-4.9445,-4.9393,-4.9397,-4.9451,-4.9423,-4.9496,-4.9502,-4.9539,-4.9563,-4.9565,-4.9558,-4.9555,-4.9556,-4.9773,-4.9775,0,0,-4.9383,-4.9408,-4.9441,-4.945,-4.9442,-4.9422,-4.9425,-4.9499,-4.9527,-4.9563,-4.9567,-4.9559,-4.9556,-4.9557,-4.9772,-4.9774,0,0,0,-4.9381,-4.9406,-4.9407,-4.9447,-4.9455,-4.9424,-4.9428,-4.9524,-4.9522,-4.9568,-4.956,-4.9557,-4.9558,-4.977,-4.9773,-4.9869,0,0,0,-4.9379,-4.9405,-4.9406,-4.9422,-4.9454,-4.949,-4.9451,-4.9517,-4.9525,-4.956,-4.9557,-4.9559,-4.9769,-4.9772,-4.9863,-4.991,0,0,0,-4.9383,-4.9405,-4.9417,-4.9423,-4.9448,-4.9488,-4.949,-4.9518,-4.952,-4.9555,-4.956,-4.9768,-4.9771,-4.9857,-4.9901,-4.9975,0,0,0,-4.9394,-4.9501,-4.9419,-4.9536,-4.9447,-4.9548,-4.9489,-4.9563,-4.9604,-4.9557,-4.9769,-4.9772,-4.9856,-4.9895,-4.997,-5.0042,-5.0074,0,0,-4.9542,-4.952,-4.9587,-4.9515,-4.9636,-4.9537,-4.9673,-4.9687,-4.9668,-4.974,-4.9745,-4.9865,-4.99,-4.9974,-5.0249,-5.0275,0,0,0,-4.9642,-4.969,-4.9717,-4.9758,-4.9773,-4.979,-4.9781,-4.9788,-4.9847,-4.971,-4.9912,-4.9932,-4.9974,-5.0007,-5.003,-5.0065,-4.9789,-4.9789,-4.9788,-4.9884,-4.9856,-4.9966,-4.9946,-4.9987,-4.998,-5.0011,-5.0018,-4.9975,-5.0025,-5.0045,-5.0215,-5.0255,-5.0272,-5.0309,-5.0081,-5.0082,-5.0082,-5.0082,-5.0099,-5.0163,-5.0109,-5.0195,-5.0167,-5.0239,-5.0239,-5.0207,-5.0272,-5.0196,-5.0232,-5.0151,-5.0301,-5.0332,-5.0089,-5.0088,-5.0087,-5.0087,-5.0086,-5.0253,-5.0279,-5.0287,-5.0346,-5.0396,-5.0373,-5.0439,-5.041,-5.0383,-5.0419,-5.0438,-5.0437,-5.0431,-5.0431,-5.0431,-5.0432,-5.0432,-5.0433,-5.0433,-5.041,-5.0415,-5.0474,-5.0503,-5.0528,-5.0557,-5.0555,-5.0579,-5.0598,-5.0572,-5.0572,-5.0527,-5.0321,-5.027,-5.0442,-5.0441,-5.0439,-5.0439,-5.0438,-5.0635,-5.0581,-5.0671,-5.0697,-5.0731,-5.0784,-5.0748,-5.0801,-5.0817,-5.0851,-5.08,-5.0653,-5.0627,-5.0609,-5.0566,-5.0805,-5.0805,-5.0805,-5.0805,-5.0765,-5.075,-5.0838,-5.0882,-5.0921,-5.09,-5.1006,-5.1008,-5.1001,-5.101,-5.0972,-5.0913,-5.0897,-5.0881,-5.0857,-5.0816,-5.1113,-5.1114,-5.1114,-5.0902,-5.0891,-5.0985,-5.0979,-5.1005,-5.1028,-5.1128,-5.1182,-5.1163,-5.1126,-5.1017,-5.1004,-5.0909,-5.0879,-5.0837,-5.08,-5.0726,0,0]},{"header":{"parameterUnit":"m.s-1","parameterCategory":1,"la1":30.2992,"la2":30.254,"lo1":-89.0895,"lo2":-89.0443,"dy":0.0025,"dx":0.0025,"nx":19,"ny":19,"refTime":"2026-04-10T09:00:00:Z","depth":0,"parameterNumber":3,"parameterNumberName":"V-component_of_WINDS"},"data":[0,0,0,2.6764,2.6764,2.6788,2.6788,2.6804,2.6804,0,0,0,0,0,0,0,0,0,0,0,2.6749,2.6749,2.6763,2.6764,2.6788,2.6788,2.6804,2.6804,0,0,0,0,0,0,0,0,0,0,0,2.6749,2.6749,2.6748,2.6764,2.6788,2.6788,2.6804,2.6791,0,0,0,0,0,0,0,0,0,0,2.677,2.6749,2.6749,2.6748,2.6764,2.6788,2.6788,2.6791,2.6792,2.6788,0,2.6783,0,2.6794,2.6805,2.6805,0,0,0,2.6769,2.6748,2.6762,2.6748,2.6764,2.6788,2.6779,2.6791,2.6793,2.6789,2.6783,2.6784,2.6794,2.6805,2.6805,2.6767,2.6767,0,0,2.6768,2.6748,2.6761,2.6762,2.6759,2.6778,2.6779,2.6793,2.6784,2.6783,2.6785,2.6795,2.6805,2.6805,2.6767,2.6767,0,0,0,2.676,2.6747,2.6761,2.6761,2.6767,2.6778,2.678,2.6784,2.679,2.6785,2.6795,2.6805,2.6805,2.6768,2.6767,2.6727,0,0,0,2.676,2.6743,2.676,2.6748,2.6766,2.6776,2.677,2.6789,2.6791,2.6795,2.6805,2.6805,2.6768,2.6768,2.6729,2.671,0,0,0,2.675,2.6742,2.6743,2.6747,2.6757,2.6776,2.6783,2.679,2.6797,2.6805,2.6805,2.6769,2.6768,2.6731,2.6714,2.6694,0,0,0,2.6732,2.6706,2.6742,2.6716,2.6757,2.6752,2.6783,2.678,2.6783,2.6805,2.6768,2.6767,2.6732,2.6716,2.6696,2.6672,2.6661,0,0,2.6688,2.67,2.6686,2.6719,2.6703,2.675,2.6728,2.6748,2.6766,2.6765,2.6765,2.6729,2.6714,2.6694,2.6611,2.6602,0,0,0,2.6666,2.6655,2.6656,2.6658,2.6674,2.6686,2.6712,2.672,2.6721,2.6762,2.6718,2.671,2.6699,2.6689,2.6681,2.6672,2.6762,2.6763,2.6763,2.6571,2.6598,2.6578,2.6608,2.661,2.6638,2.6642,2.6657,2.6681,2.6671,2.667,2.6616,2.6603,2.6598,2.6589,2.6662,2.6662,2.6662,2.6661,2.6507,2.6496,2.6533,2.6526,2.6554,2.6548,2.6575,2.6593,2.6591,2.6619,2.6611,2.6637,2.6587,2.6581,2.6659,2.6659,2.666,2.666,2.666,2.6446,2.6445,2.6457,2.6465,2.6468,2.65,2.6496,2.6523,2.6547,2.6539,2.654,2.6541,2.6543,2.6539,2.6538,2.6538,2.6538,2.6538,2.6538,2.6376,2.6391,2.6386,2.6404,2.641,2.6421,2.6451,2.6457,2.647,2.6489,2.6489,2.6514,2.6579,2.6593,2.6535,2.6536,2.6536,2.6536,2.6536,2.6295,2.6319,2.631,2.6316,2.634,2.6341,2.6376,2.6387,2.6396,2.6393,2.6422,2.6466,2.6479,2.6485,2.6497,2.6417,2.6417,2.6417,2.6417,2.6241,2.6253,2.6251,2.6259,2.6271,2.6303,2.6291,2.6316,2.6344,2.6351,2.6368,2.6387,2.6392,2.6401,2.6409,2.6421,2.6323,2.6323,2.6323,2.6192,2.6206,2.6191,2.6222,2.6243,2.626,2.6251,2.6258,2.6295,2.632,2.6357,2.6361,2.6392,2.6401,2.6422,2.6434,2.6455,0,0]}]]